owner,sensor,date,latitude,longitude,sea_water_turbidity,qcFlag 
NERRS,ioos:station:NOAA.NERRS:marabwq:1,2014-12-01T01:45:00Z,27.9798,-97.0287,6.0,1111122 
NERRS,ioos:station:NOAA.NERRS:marabwq:1,2014-12-01T02:45:00Z,27.9798,-97.0287,3.0,1111122 
NERRS,ioos:station:NOAA.NERRS:marabwq:1,2014-12-01T03:45:00Z,27.9798,-97.0287,3.0,1111122 
NERRS,ioos:station:NOAA.NERRS:marabwq:1,2014-12-01T04:45:00Z,27.9798,-97.0287,3.0,1111122 
NERRS,ioos:station:NOAA.NERRS:marabwq:1,2014-12-01T05:45:00Z,27.9798,-97.0287,3.0,1111122 
NERRS,ioos:station:NOAA.NERRS:marabwq:1,2014-12-01T06:45:00Z,27.9798,-97.0287,2.0,1111122 
NERRS,ioos:station:NOAA.NERRS:marabwq:1,2014-12-01T07:45:00Z,27.9798,-97.0287,2.0,1111122 
NERRS,ioos:station:NOAA.NERRS:marabwq:1,2014-12-01T08:45:00Z,27.9798,-97.0287,3.0,1111122 
NERRS,ioos:station:NOAA.NERRS:marabwq:1,2014-12-01T09:45:00Z,27.9798,-97.0287,3.0,1111122 
NERRS,ioos:station:NOAA.NERRS:marabwq:1,2014-12-01T11:45:00Z,27.9798,-97.0287,3.0,1111122 
NERRS,ioos:station:NOAA.NERRS:marabwq:1,2014-12-01T12:45:00Z,27.9798,-97.0287,3.0,1111122 
NERRS,ioos:station:NOAA.NERRS:marabwq:1,2014-12-01T18:45:00Z,27.9798,-97.0287,2.0,1111122 
NERRS,ioos:station:NOAA.NERRS:marabwq:1,2014-12-01T19:45:00Z,27.9798,-97.0287,2.0,1111122 
NERRS,ioos:station:NOAA.NERRS:marabwq:1,2014-12-01T20:45:00Z,27.9798,-97.0287,8.0,1111122 
NERRS,ioos:station:NOAA.NERRS:marabwq:1,2014-12-01T22:45:00Z,27.9798,-97.0287,57.0,1111122 
NERRS,ioos:station:NOAA.NERRS:marabwq:1,2014-12-01T23:45:00Z,27.9798,-97.0287,83.0,1111122 
NERRS,ioos:station:NOAA.NERRS:marabwq:1,2014-12-02T00:45:00Z,27.9798,-97.0287,106.0,1111122 
NERRS,ioos:station:NOAA.NERRS:marabwq:1,2014-12-02T01:45:00Z,27.9798,-97.0287,109.0,1111122 
NERRS,ioos:station:NOAA.NERRS:marabwq:1,2014-12-02T02:45:00Z,27.9798,-97.0287,125.0,1111122 
NERRS,ioos:station:NOAA.NERRS:marabwq:1,2014-12-02T03:45:00Z,27.9798,-97.0287,107.0,1111122 
NERRS,ioos:station:NOAA.NERRS:marabwq:1,2014-12-02T04:45:00Z,27.9798,-97.0287,110.0,1111122 
NERRS,ioos:station:NOAA.NERRS:marabwq:1,2014-12-02T06:45:00Z,27.9798,-97.0287,95.0,1111122 
NERRS,ioos:station:NOAA.NERRS:marabwq:1,2014-12-02T07:45:00Z,27.9798,-97.0287,100.0,1111122 
NERRS,ioos:station:NOAA.NERRS:marabwq:1,2014-12-02T08:45:00Z,27.9798,-97.0287,101.0,1111122 
NERRS,ioos:station:NOAA.NERRS:marabwq:1,2014-12-02T09:45:00Z,27.9798,-97.0287,114.0,1111122 
NERRS,ioos:station:NOAA.NERRS:marabwq:1,2014-12-02T10:45:00Z,27.9798,-97.0287,119.0,1111122 
NERRS,ioos:station:NOAA.NERRS:marabwq:1,2014-12-02T11:45:00Z,27.9798,-97.0287,116.0,1111122 
NERRS,ioos:station:NOAA.NERRS:marabwq:1,2014-12-02T12:45:00Z,27.9798,-97.0287,98.0,1111122 
NERRS,ioos:station:NOAA.NERRS:marabwq:1,2014-12-02T13:45:00Z,27.9798,-97.0287,80.0,1111122 
NERRS,ioos:station:NOAA.NERRS:marabwq:1,2014-12-02T14:45:00Z,27.9798,-97.0287,60.0,1111122 
NERRS,ioos:station:NOAA.NERRS:marabwq:1,2014-12-02T15:45:00Z,27.9798,-97.0287,50.0,1111122 
NERRS,ioos:station:NOAA.NERRS:marabwq:1,2014-12-02T16:45:00Z,27.9798,-97.0287,50.0,1111122 
NERRS,ioos:station:NOAA.NERRS:marabwq:1,2014-12-02T17:45:00Z,27.9798,-97.0287,56.0,1111122 
NERRS,ioos:station:NOAA.NERRS:marabwq:1,2014-12-02T18:45:00Z,27.9798,-97.0287,46.0,1111122 
NERRS,ioos:station:NOAA.NERRS:marabwq:1,2014-12-02T19:45:00Z,27.9798,-97.0287,46.0,1111122 
NERRS,ioos:station:NOAA.NERRS:marabwq:1,2014-12-02T20:45:00Z,27.9798,-97.0287,40.0,1111122 
NERRS,ioos:station:NOAA.NERRS:marabwq:1,2014-12-02T21:45:00Z,27.9798,-97.0287,39.0,1111122 
NERRS,ioos:station:NOAA.NERRS:marabwq:1,2014-12-02T22:45:00Z,27.9798,-97.0287,31.0,1111122 
NERRS,ioos:station:NOAA.NERRS:marabwq:1,2014-12-02T23:45:00Z,27.9798,-97.0287,32.0,1111122 
NERRS,ioos:station:NOAA.NERRS:marabwq:1,2014-12-03T00:45:00Z,27.9798,-97.0287,32.0,1111122 
NERRS,ioos:station:NOAA.NERRS:marabwq:1,2014-12-03T01:45:00Z,27.9798,-97.0287,30.0,1111122 
NERRS,ioos:station:NOAA.NERRS:marabwq:1,2014-12-03T02:45:00Z,27.9798,-97.0287,39.0,1111122 
NERRS,ioos:station:NOAA.NERRS:marabwq:1,2014-12-03T03:45:00Z,27.9798,-97.0287,44.0,1111122 
NERRS,ioos:station:NOAA.NERRS:marabwq:1,2014-12-03T04:45:00Z,27.9798,-97.0287,50.0,1111122 
NERRS,ioos:station:NOAA.NERRS:marabwq:1,2014-12-03T05:45:00Z,27.9798,-97.0287,43.0,1111122 
NERRS,ioos:station:NOAA.NERRS:marabwq:1,2014-12-03T06:45:00Z,27.9798,-97.0287,44.0,1111122 
NERRS,ioos:station:NOAA.NERRS:marabwq:1,2014-12-03T07:45:00Z,27.9798,-97.0287,44.0,1111122 
NERRS,ioos:station:NOAA.NERRS:marabwq:1,2014-12-03T08:45:00Z,27.9798,-97.0287,47.0,1111122 
NERRS,ioos:station:NOAA.NERRS:marabwq:1,2014-12-03T10:45:00Z,27.9798,-97.0287,44.0,1111122 
NERRS,ioos:station:NOAA.NERRS:marabwq:1,2014-12-03T11:45:00Z,27.9798,-97.0287,46.0,1111122 
NERRS,ioos:station:NOAA.NERRS:marabwq:1,2014-12-03T12:45:00Z,27.9798,-97.0287,48.0,1111122 
NERRS,ioos:station:NOAA.NERRS:marabwq:1,2014-12-03T13:45:00Z,27.9798,-97.0287,48.0,1111122 
NERRS,ioos:station:NOAA.NERRS:marabwq:1,2014-12-03T14:45:00Z,27.9798,-97.0287,46.0,1111122 
NERRS,ioos:station:NOAA.NERRS:marabwq:1,2014-12-03T16:45:00Z,27.9798,-97.0287,42.0,1111122 
NERRS,ioos:station:NOAA.NERRS:marabwq:1,2014-12-03T18:45:00Z,27.9798,-97.0287,50.0,1111122 
NERRS,ioos:station:NOAA.NERRS:marabwq:1,2014-12-03T19:45:00Z,27.9798,-97.0287,54.0,1111122 
NERRS,ioos:station:NOAA.NERRS:marabwq:1,2014-12-03T20:45:00Z,27.9798,-97.0287,61.0,1111122 
NERRS,ioos:station:NOAA.NERRS:marabwq:1,2014-12-03T22:45:00Z,27.9798,-97.0287,67.0,1111122 
NERRS,ioos:station:NOAA.NERRS:marabwq:1,2014-12-03T23:45:00Z,27.9798,-97.0287,72.0,1111122 
NERRS,ioos:station:NOAA.NERRS:marabwq:1,2014-12-04T00:45:00Z,27.9798,-97.0287,71.0,1111122 
NERRS,ioos:station:NOAA.NERRS:marabwq:1,2014-12-04T01:45:00Z,27.9798,-97.0287,57.0,1111122 
NERRS,ioos:station:NOAA.NERRS:marabwq:1,2014-12-04T02:45:00Z,27.9798,-97.0287,55.0,1111122 
NERRS,ioos:station:NOAA.NERRS:marabwq:1,2014-12-04T03:45:00Z,27.9798,-97.0287,51.0,1111122 
NERRS,ioos:station:NOAA.NERRS:marabwq:1,2014-12-04T04:45:00Z,27.9798,-97.0287,59.0,1111122 
NERRS,ioos:station:NOAA.NERRS:marabwq:1,2014-12-04T05:45:00Z,27.9798,-97.0287,24.0,1111122 
NERRS,ioos:station:NOAA.NERRS:marabwq:1,2014-12-04T06:45:00Z,27.9798,-97.0287,18.0,1111122 
NERRS,ioos:station:NOAA.NERRS:marabwq:1,2014-12-04T07:45:00Z,27.9798,-97.0287,20.0,1111122 
NERRS,ioos:station:NOAA.NERRS:marabwq:1,2014-12-04T08:45:00Z,27.9798,-97.0287,21.0,1111122 
NERRS,ioos:station:NOAA.NERRS:marabwq:1,2014-12-04T10:45:00Z,27.9798,-97.0287,12.0,1111122 
NERRS,ioos:station:NOAA.NERRS:marabwq:1,2014-12-04T11:45:00Z,27.9798,-97.0287,15.0,1111122 
NERRS,ioos:station:NOAA.NERRS:marabwq:1,2014-12-04T12:45:00Z,27.9798,-97.0287,15.0,1111122 
NERRS,ioos:station:NOAA.NERRS:marabwq:1,2014-12-04T13:45:00Z,27.9798,-97.0287,16.0,1111122 
NERRS,ioos:station:NOAA.NERRS:marabwq:1,2014-12-04T16:45:00Z,27.9798,-97.0287,15.0,1111122 
NERRS,ioos:station:NOAA.NERRS:marabwq:1,2014-12-04T17:45:00Z,27.9798,-97.0287,16.0,1111122 
NERRS,ioos:station:NOAA.NERRS:marabwq:1,2014-12-04T18:45:00Z,27.9798,-97.0287,18.0,1111122 
NERRS,ioos:station:NOAA.NERRS:marabwq:1,2014-12-04T19:45:00Z,27.9798,-97.0287,16.0,1111122 
NERRS,ioos:station:NOAA.NERRS:marabwq:1,2014-12-04T20:45:00Z,27.9798,-97.0287,14.0,1111122 
NERRS,ioos:station:NOAA.NERRS:marabwq:1,2014-12-04T21:45:00Z,27.9798,-97.0287,12.0,1111122 
NERRS,ioos:station:NOAA.NERRS:marabwq:1,2014-12-04T22:45:00Z,27.9798,-97.0287,10.0,1111122 
NERRS,ioos:station:NOAA.NERRS:marabwq:1,2014-12-04T23:45:00Z,27.9798,-97.0287,9.0,1111122 
NERRS,ioos:station:NOAA.NERRS:marabwq:1,2014-12-05T00:45:00Z,27.9798,-97.0287,10.0,1111122 
NERRS,ioos:station:NOAA.NERRS:marabwq:1,2014-12-05T01:45:00Z,27.9798,-97.0287,10.0,1111122 
NERRS,ioos:station:NOAA.NERRS:marabwq:1,2014-12-05T02:45:00Z,27.9798,-97.0287,13.0,1111122 
NERRS,ioos:station:NOAA.NERRS:marabwq:1,2014-12-05T03:45:00Z,27.9798,-97.0287,10.0,1111122 
NERRS,ioos:station:NOAA.NERRS:marabwq:1,2014-12-05T04:45:00Z,27.9798,-97.0287,8.0,1111122 
NERRS,ioos:station:NOAA.NERRS:marabwq:1,2014-12-05T06:45:00Z,27.9798,-97.0287,8.0,1111122 
NERRS,ioos:station:NOAA.NERRS:marabwq:1,2014-12-05T07:45:00Z,27.9798,-97.0287,7.0,1111122 
NERRS,ioos:station:NOAA.NERRS:marabwq:1,2014-12-05T09:45:00Z,27.9798,-97.0287,7.0,1111122 
NERRS,ioos:station:NOAA.NERRS:marabwq:1,2014-12-05T10:45:00Z,27.9798,-97.0287,7.0,1111122 
NERRS,ioos:station:NOAA.NERRS:marabwq:1,2014-12-05T11:45:00Z,27.9798,-97.0287,8.0,1111122 
NERRS,ioos:station:NOAA.NERRS:marabwq:1,2014-12-05T12:45:00Z,27.9798,-97.0287,9.0,1111122 
NERRS,ioos:station:NOAA.NERRS:marabwq:1,2014-12-05T13:45:00Z,27.9798,-97.0287,9.0,1111122 
NERRS,ioos:station:NOAA.NERRS:marabwq:1,2014-12-05T14:45:00Z,27.9798,-97.0287,7.0,1111122 
NERRS,ioos:station:NOAA.NERRS:marabwq:1,2014-12-05T16:45:00Z,27.9798,-97.0287,16.0,1111122 
NERRS,ioos:station:NOAA.NERRS:marabwq:1,2014-12-05T18:45:00Z,27.9798,-97.0287,8.0,1111122 
NERRS,ioos:station:NOAA.NERRS:marabwq:1,2014-12-05T19:45:00Z,27.9798,-97.0287,7.0,1111122 
NERRS,ioos:station:NOAA.NERRS:marabwq:1,2014-12-05T20:45:00Z,27.9798,-97.0287,8.0,1111122 
NERRS,ioos:station:NOAA.NERRS:marabwq:1,2014-12-05T21:45:00Z,27.9798,-97.0287,6.0,1111122 
NERRS,ioos:station:NOAA.NERRS:marabwq:1,2014-12-05T22:45:00Z,27.9798,-97.0287,4.0,1111122 
NERRS,ioos:station:NOAA.NERRS:marabwq:1,2014-12-05T23:45:00Z,27.9798,-97.0287,2.0,1111122 
NERRS,ioos:station:NOAA.NERRS:marabwq:1,2014-12-06T00:45:00Z,27.9798,-97.0287,2.0,1111122 
NERRS,ioos:station:NOAA.NERRS:marabwq:1,2014-12-06T02:45:00Z,27.9798,-97.0287,2.0,1111122 
NERRS,ioos:station:NOAA.NERRS:marabwq:1,2014-12-06T03:45:00Z,27.9798,-97.0287,3.0,1111122 
NERRS,ioos:station:NOAA.NERRS:marabwq:1,2014-12-06T04:45:00Z,27.9798,-97.0287,7.0,1111122 
NERRS,ioos:station:NOAA.NERRS:marabwq:1,2014-12-06T06:45:00Z,27.9798,-97.0287,3.0,1111122 
NERRS,ioos:station:NOAA.NERRS:marabwq:1,2014-12-06T07:45:00Z,27.9798,-97.0287,3.0,1111122 
NERRS,ioos:station:NOAA.NERRS:marabwq:1,2014-12-06T08:45:00Z,27.9798,-97.0287,5.0,1111122 
NERRS,ioos:station:NOAA.NERRS:marabwq:1,2014-12-06T09:45:00Z,27.9798,-97.0287,5.0,1111122 
NERRS,ioos:station:NOAA.NERRS:marabwq:1,2014-12-06T10:45:00Z,27.9798,-97.0287,7.0,1111122 
NERRS,ioos:station:NOAA.NERRS:marabwq:1,2014-12-06T11:45:00Z,27.9798,-97.0287,4.0,1111122 
NERRS,ioos:station:NOAA.NERRS:marabwq:1,2014-12-06T12:45:00Z,27.9798,-97.0287,3.0,1111122 
NERRS,ioos:station:NOAA.NERRS:marabwq:1,2014-12-06T14:45:00Z,27.9798,-97.0287,6.0,1111122 
NERRS,ioos:station:NOAA.NERRS:marabwq:1,2014-12-06T15:45:00Z,27.9798,-97.0287,6.0,1111122 
NERRS,ioos:station:NOAA.NERRS:marabwq:1,2014-12-06T16:45:00Z,27.9798,-97.0287,5.0,1111122 
NERRS,ioos:station:NOAA.NERRS:marabwq:1,2014-12-06T17:45:00Z,27.9798,-97.0287,3.0,1111122 
NERRS,ioos:station:NOAA.NERRS:marabwq:1,2014-12-06T18:45:00Z,27.9798,-97.0287,3.0,1111122 
NERRS,ioos:station:NOAA.NERRS:marabwq:1,2014-12-06T19:45:00Z,27.9798,-97.0287,3.0,1111122 
NERRS,ioos:station:NOAA.NERRS:marabwq:1,2014-12-06T20:45:00Z,27.9798,-97.0287,7.0,1111122 
NERRS,ioos:station:NOAA.NERRS:marabwq:1,2014-12-06T22:45:00Z,27.9798,-97.0287,3.0,1111122 
NERRS,ioos:station:NOAA.NERRS:marabwq:1,2014-12-06T23:45:00Z,27.9798,-97.0287,7.0,1111122 
NERRS,ioos:station:NOAA.NERRS:marabwq:1,2014-12-07T00:45:00Z,27.9798,-97.0287,12.0,1111122 
NERRS,ioos:station:NOAA.NERRS:marabwq:1,2014-12-07T01:45:00Z,27.9798,-97.0287,20.0,1111122 
NERRS,ioos:station:NOAA.NERRS:marabwq:1,2014-12-07T02:45:00Z,27.9798,-97.0287,30.0,1111122 
NERRS,ioos:station:NOAA.NERRS:marabwq:1,2014-12-07T03:45:00Z,27.9798,-97.0287,37.0,1111122 
NERRS,ioos:station:NOAA.NERRS:marabwq:1,2014-12-07T04:45:00Z,27.9798,-97.0287,40.0,1111122 
NERRS,ioos:station:NOAA.NERRS:marabwq:1,2014-12-07T05:45:00Z,27.9798,-97.0287,40.0,1111122 
NERRS,ioos:station:NOAA.NERRS:marabwq:1,2014-12-07T06:45:00Z,27.9798,-97.0287,43.0,1111122 
NERRS,ioos:station:NOAA.NERRS:marabwq:1,2014-12-07T07:45:00Z,27.9798,-97.0287,42.0,1111122 
NERRS,ioos:station:NOAA.NERRS:marabwq:1,2014-12-07T08:45:00Z,27.9798,-97.0287,41.0,1111122 
NERRS,ioos:station:NOAA.NERRS:marabwq:1,2014-12-07T09:45:00Z,27.9798,-97.0287,34.0,1111122 
NERRS,ioos:station:NOAA.NERRS:marabwq:1,2014-12-07T10:45:00Z,27.9798,-97.0287,37.0,1111122 
NERRS,ioos:station:NOAA.NERRS:marabwq:1,2014-12-07T11:45:00Z,27.9798,-97.0287,37.0,1111122 
NERRS,ioos:station:NOAA.NERRS:marabwq:1,2014-12-07T12:45:00Z,27.9798,-97.0287,35.0,1111122 
NERRS,ioos:station:NOAA.NERRS:marabwq:1,2014-12-07T13:45:00Z,27.9798,-97.0287,33.0,1111122 
NERRS,ioos:station:NOAA.NERRS:marabwq:1,2014-12-07T14:45:00Z,27.9798,-97.0287,31.0,1111122 
NERRS,ioos:station:NOAA.NERRS:marabwq:1,2014-12-07T15:45:00Z,27.9798,-97.0287,30.0,1111122 
NERRS,ioos:station:NOAA.NERRS:marabwq:1,2014-12-07T16:45:00Z,27.9798,-97.0287,32.0,1111122 
NERRS,ioos:station:NOAA.NERRS:marabwq:1,2014-12-07T17:45:00Z,27.9798,-97.0287,34.0,1111122 
NERRS,ioos:station:NOAA.NERRS:marabwq:1,2014-12-07T18:45:00Z,27.9798,-97.0287,31.0,1111122 
NERRS,ioos:station:NOAA.NERRS:marabwq:1,2014-12-07T19:45:00Z,27.9798,-97.0287,42.0,1111122 
NERRS,ioos:station:NOAA.NERRS:marabwq:1,2014-12-07T20:45:00Z,27.9798,-97.0287,45.0,1111122 
NERRS,ioos:station:NOAA.NERRS:marabwq:1,2014-12-07T21:45:00Z,27.9798,-97.0287,44.0,1111122 
NERRS,ioos:station:NOAA.NERRS:marabwq:1,2014-12-07T22:45:00Z,27.9798,-97.0287,46.0,1111122 
NERRS,ioos:station:NOAA.NERRS:marabwq:1,2014-12-07T23:45:00Z,27.9798,-97.0287,50.0,1111122 
NERRS,ioos:station:NOAA.NERRS:marabwq:1,2014-12-08T00:45:00Z,27.9798,-97.0287,54.0,1111122 
NERRS,ioos:station:NOAA.NERRS:marabwq:1,2014-12-08T02:45:00Z,27.9798,-97.0287,60.0,1111122 
NERRS,ioos:station:NOAA.NERRS:marabwq:1,2014-12-08T03:45:00Z,27.9798,-97.0287,60.0,1111122 
NERRS,ioos:station:NOAA.NERRS:marabwq:1,2014-12-08T04:45:00Z,27.9798,-97.0287,67.0,1111122 
NERRS,ioos:station:NOAA.NERRS:marabwq:1,2014-12-08T05:45:00Z,27.9798,-97.0287,69.0,1111122 
NERRS,ioos:station:NOAA.NERRS:marabwq:1,2014-12-08T06:45:00Z,27.9798,-97.0287,65.0,1111122 
NERRS,ioos:station:NOAA.NERRS:marabwq:1,2014-12-08T07:45:00Z,27.9798,-97.0287,63.0,1111122 
NERRS,ioos:station:NOAA.NERRS:marabwq:1,2014-12-08T08:45:00Z,27.9798,-97.0287,61.0,1111122 
NERRS,ioos:station:NOAA.NERRS:marabwq:1,2014-12-08T09:45:00Z,27.9798,-97.0287,55.0,1111122 
NERRS,ioos:station:NOAA.NERRS:marabwq:1,2014-12-08T10:45:00Z,27.9798,-97.0287,61.0,1111122 
NERRS,ioos:station:NOAA.NERRS:marabwq:1,2014-12-08T11:45:00Z,27.9798,-97.0287,71.0,1111122 
NERRS,ioos:station:NOAA.NERRS:marabwq:1,2014-12-08T12:45:00Z,27.9798,-97.0287,78.0,1111122 
NERRS,ioos:station:NOAA.NERRS:marabwq:1,2014-12-08T14:45:00Z,27.9798,-97.0287,72.0,1111122 
NERRS,ioos:station:NOAA.NERRS:marabwq:1,2014-12-08T15:45:00Z,27.9798,-97.0287,69.0,1111122 
NERRS,ioos:station:NOAA.NERRS:marabwq:1,2014-12-08T16:45:00Z,27.9798,-97.0287,64.0,1111122 
NERRS,ioos:station:NOAA.NERRS:marabwq:1,2014-12-08T17:45:00Z,27.9798,-97.0287,53.0,1111122 
NERRS,ioos:station:NOAA.NERRS:marabwq:1,2014-12-08T18:45:00Z,27.9798,-97.0287,50.0,1111122 
NERRS,ioos:station:NOAA.NERRS:marabwq:1,2014-12-08T19:45:00Z,27.9798,-97.0287,36.0,1111122 
NERRS,ioos:station:NOAA.NERRS:marabwq:1,2014-12-08T20:45:00Z,27.9798,-97.0287,30.0,1111122 
NERRS,ioos:station:NOAA.NERRS:marabwq:1,2014-12-08T21:45:00Z,27.9798,-97.0287,27.0,1111122 
NERRS,ioos:station:NOAA.NERRS:marabwq:1,2014-12-08T22:45:00Z,27.9798,-97.0287,22.0,1111122 
NERRS,ioos:station:NOAA.NERRS:marabwq:1,2014-12-08T23:45:00Z,27.9798,-97.0287,20.0,1111122 
NERRS,ioos:station:NOAA.NERRS:marabwq:1,2014-12-09T00:45:00Z,27.9798,-97.0287,20.0,1111122 
NERRS,ioos:station:NOAA.NERRS:marabwq:1,2014-12-09T01:45:00Z,27.9798,-97.0287,21.0,1111122 
NERRS,ioos:station:NOAA.NERRS:marabwq:1,2014-12-09T02:45:00Z,27.9798,-97.0287,21.0,1111122 
NERRS,ioos:station:NOAA.NERRS:marabwq:1,2014-12-09T03:45:00Z,27.9798,-97.0287,17.0,1111122 
NERRS,ioos:station:NOAA.NERRS:marabwq:1,2014-12-09T04:45:00Z,27.9798,-97.0287,19.0,1111122 
NERRS,ioos:station:NOAA.NERRS:marabwq:1,2014-12-09T05:45:00Z,27.9798,-97.0287,21.0,1111122 
NERRS,ioos:station:NOAA.NERRS:marabwq:1,2014-12-09T06:45:00Z,27.9798,-97.0287,16.0,1111122 
NERRS,ioos:station:NOAA.NERRS:marabwq:1,2014-12-09T07:45:00Z,27.9798,-97.0287,15.0,1111122 
NERRS,ioos:station:NOAA.NERRS:marabwq:1,2014-12-09T08:45:00Z,27.9798,-97.0287,13.0,1111122 
NERRS,ioos:station:NOAA.NERRS:marabwq:1,2014-12-09T09:45:00Z,27.9798,-97.0287,12.0,1111122 
NERRS,ioos:station:NOAA.NERRS:marabwq:1,2014-12-09T10:45:00Z,27.9798,-97.0287,13.0,1111122 
NERRS,ioos:station:NOAA.NERRS:marabwq:1,2014-12-09T11:45:00Z,27.9798,-97.0287,13.0,1111122 
NERRS,ioos:station:NOAA.NERRS:marabwq:1,2014-12-09T12:45:00Z,27.9798,-97.0287,14.0,1111122 
NERRS,ioos:station:NOAA.NERRS:marabwq:1,2014-12-09T13:45:00Z,27.9798,-97.0287,16.0,1111122 
NERRS,ioos:station:NOAA.NERRS:marabwq:1,2014-12-09T15:45:00Z,27.9798,-97.0287,16.0,1111122 
NERRS,ioos:station:NOAA.NERRS:marabwq:1,2014-12-09T16:45:00Z,27.9798,-97.0287,15.0,1111122 
NERRS,ioos:station:NOAA.NERRS:marabwq:1,2014-12-09T17:45:00Z,27.9798,-97.0287,16.0,1111122 
NERRS,ioos:station:NOAA.NERRS:marabwq:1,2014-12-09T18:45:00Z,27.9798,-97.0287,17.0,1111122 
NERRS,ioos:station:NOAA.NERRS:marabwq:1,2014-12-09T19:45:00Z,27.9798,-97.0287,11.0,1111122 
NERRS,ioos:station:NOAA.NERRS:marabwq:1,2014-12-09T20:45:00Z,27.9798,-97.0287,16.0,1111122 
NERRS,ioos:station:NOAA.NERRS:marabwq:1,2014-12-09T22:45:00Z,27.9798,-97.0287,19.0,1111122 
NERRS,ioos:station:NOAA.NERRS:marabwq:1,2014-12-09T23:45:00Z,27.9798,-97.0287,9.0,1111122 
NERRS,ioos:station:NOAA.NERRS:marabwq:1,2014-12-10T00:45:00Z,27.9798,-97.0287,10.0,1111122 
NERRS,ioos:station:NOAA.NERRS:marabwq:1,2014-12-10T01:45:00Z,27.9798,-97.0287,11.0,1111122 
NERRS,ioos:station:NOAA.NERRS:marabwq:1,2014-12-10T02:45:00Z,27.9798,-97.0287,11.0,1111122 
NERRS,ioos:station:NOAA.NERRS:marabwq:1,2014-12-10T03:45:00Z,27.9798,-97.0287,11.0,1111122 
NERRS,ioos:station:NOAA.NERRS:marabwq:1,2014-12-10T04:45:00Z,27.9798,-97.0287,11.0,1111122 
NERRS,ioos:station:NOAA.NERRS:marabwq:1,2014-12-10T05:45:00Z,27.9798,-97.0287,10.0,1111122 
NERRS,ioos:station:NOAA.NERRS:marabwq:1,2014-12-10T06:45:00Z,27.9798,-97.0287,10.0,1111122 
NERRS,ioos:station:NOAA.NERRS:marabwq:1,2014-12-10T07:45:00Z,27.9798,-97.0287,8.0,1111122 
NERRS,ioos:station:NOAA.NERRS:marabwq:1,2014-12-10T08:45:00Z,27.9798,-97.0287,10.0,1111122 
NERRS,ioos:station:NOAA.NERRS:marabwq:1,2014-12-10T09:45:00Z,27.9798,-97.0287,11.0,1111122 
NERRS,ioos:station:NOAA.NERRS:marabwq:1,2014-12-10T10:45:00Z,27.9798,-97.0287,10.0,1111122 
NERRS,ioos:station:NOAA.NERRS:marabwq:1,2014-12-10T11:45:00Z,27.9798,-97.0287,8.0,1111122 
NERRS,ioos:station:NOAA.NERRS:marabwq:1,2014-12-10T12:45:00Z,27.9798,-97.0287,9.0,1111122 
NERRS,ioos:station:NOAA.NERRS:marabwq:1,2014-12-10T14:45:00Z,27.9798,-97.0287,8.0,1111122 
NERRS,ioos:station:NOAA.NERRS:marabwq:1,2014-12-10T15:45:00Z,27.9798,-97.0287,9.0,1111122 
NERRS,ioos:station:NOAA.NERRS:marabwq:1,2014-12-10T16:45:00Z,27.9798,-97.0287,9.0,1111122 
NERRS,ioos:station:NOAA.NERRS:marabwq:1,2014-12-10T18:45:00Z,27.9798,-97.0287,7.0,1111122 
NERRS,ioos:station:NOAA.NERRS:marabwq:1,2014-12-10T19:45:00Z,27.9798,-97.0287,6.0,1111122 
NERRS,ioos:station:NOAA.NERRS:marabwq:1,2014-12-10T20:45:00Z,27.9798,-97.0287,5.0,1111122 
NERRS,ioos:station:NOAA.NERRS:marabwq:1,2014-12-10T22:45:00Z,27.9798,-97.0287,5.0,1111122 
NERRS,ioos:station:NOAA.NERRS:marabwq:1,2014-12-11T00:45:00Z,27.9798,-97.0287,6.0,1111122 
NERRS,ioos:station:NOAA.NERRS:marabwq:1,2014-12-11T02:45:00Z,27.9798,-97.0287,7.0,1111122 
NERRS,ioos:station:NOAA.NERRS:marabwq:1,2014-12-11T03:45:00Z,27.9798,-97.0287,6.0,1111122 
NERRS,ioos:station:NOAA.NERRS:marabwq:1,2014-12-11T04:45:00Z,27.9798,-97.0287,8.0,1111122 
NERRS,ioos:station:NOAA.NERRS:marabwq:1,2014-12-11T05:45:00Z,27.9798,-97.0287,7.0,1111122 
NERRS,ioos:station:NOAA.NERRS:marabwq:1,2014-12-11T06:45:00Z,27.9798,-97.0287,8.0,1111122 
NERRS,ioos:station:NOAA.NERRS:marabwq:1,2014-12-11T07:45:00Z,27.9798,-97.0287,8.0,1111122 
NERRS,ioos:station:NOAA.NERRS:marabwq:1,2014-12-11T08:45:00Z,27.9798,-97.0287,8.0,1111122 
NERRS,ioos:station:NOAA.NERRS:marabwq:1,2014-12-11T09:45:00Z,27.9798,-97.0287,7.0,1111122 
NERRS,ioos:station:NOAA.NERRS:marabwq:1,2014-12-11T10:45:00Z,27.9798,-97.0287,7.0,1111122 
NERRS,ioos:station:NOAA.NERRS:marabwq:1,2014-12-11T11:45:00Z,27.9798,-97.0287,6.0,1111122 
NERRS,ioos:station:NOAA.NERRS:marabwq:1,2014-12-11T12:45:00Z,27.9798,-97.0287,7.0,1111122 
NERRS,ioos:station:NOAA.NERRS:marabwq:1,2014-12-11T14:45:00Z,27.9798,-97.0287,6.0,1111122 
NERRS,ioos:station:NOAA.NERRS:marabwq:1,2014-12-11T15:45:00Z,27.9798,-97.0287,7.0,1111122 
NERRS,ioos:station:NOAA.NERRS:marabwq:1,2014-12-11T16:45:00Z,27.9798,-97.0287,5.0,1111122 
NERRS,ioos:station:NOAA.NERRS:marabwq:1,2014-12-11T17:45:00Z,27.9798,-97.0287,6.0,1111122 
NERRS,ioos:station:NOAA.NERRS:marabwq:1,2014-12-11T18:45:00Z,27.9798,-97.0287,6.0,1111122 
NERRS,ioos:station:NOAA.NERRS:marabwq:1,2014-12-11T19:45:00Z,27.9798,-97.0287,5.0,1111122 
NERRS,ioos:station:NOAA.NERRS:marabwq:1,2014-12-11T20:45:00Z,27.9798,-97.0287,5.0,1111122 
NERRS,ioos:station:NOAA.NERRS:marabwq:1,2014-12-11T21:45:00Z,27.9798,-97.0287,4.0,1111122 
NERRS,ioos:station:NOAA.NERRS:marabwq:1,2014-12-11T22:45:00Z,27.9798,-97.0287,4.0,1111122 
NERRS,ioos:station:NOAA.NERRS:marabwq:1,2014-12-11T23:45:00Z,27.9798,-97.0287,4.0,1111122 
NERRS,ioos:station:NOAA.NERRS:marabwq:1,2014-12-12T00:45:00Z,27.9798,-97.0287,4.0,1111122 
NERRS,ioos:station:NOAA.NERRS:marabwq:1,2014-12-12T01:45:00Z,27.9798,-97.0287,5.0,1111122 
NERRS,ioos:station:NOAA.NERRS:marabwq:1,2014-12-12T02:45:00Z,27.9798,-97.0287,4.0,1111122 
NERRS,ioos:station:NOAA.NERRS:marabwq:1,2014-12-12T03:45:00Z,27.9798,-97.0287,4.0,1111122 
NERRS,ioos:station:NOAA.NERRS:marabwq:1,2014-12-12T04:45:00Z,27.9798,-97.0287,4.0,1111122 
NERRS,ioos:station:NOAA.NERRS:marabwq:1,2014-12-12T05:45:00Z,27.9798,-97.0287,4.0,1111122 
NERRS,ioos:station:NOAA.NERRS:marabwq:1,2014-12-12T06:45:00Z,27.9798,-97.0287,4.0,1111122 
NERRS,ioos:station:NOAA.NERRS:marabwq:1,2014-12-12T07:45:00Z,27.9798,-97.0287,5.0,1111122 
NERRS,ioos:station:NOAA.NERRS:marabwq:1,2014-12-12T08:45:00Z,27.9798,-97.0287,4.0,1111122 
NERRS,ioos:station:NOAA.NERRS:marabwq:1,2014-12-12T10:45:00Z,27.9798,-97.0287,5.0,1111122 
NERRS,ioos:station:NOAA.NERRS:marabwq:1,2014-12-12T11:45:00Z,27.9798,-97.0287,4.0,1111122 
NERRS,ioos:station:NOAA.NERRS:marabwq:1,2014-12-12T12:45:00Z,27.9798,-97.0287,4.0,1111122 
NERRS,ioos:station:NOAA.NERRS:marabwq:1,2014-12-12T13:45:00Z,27.9798,-97.0287,3.0,1111122 
NERRS,ioos:station:NOAA.NERRS:marabwq:1,2014-12-12T14:45:00Z,27.9798,-97.0287,4.0,1111122 
NERRS,ioos:station:NOAA.NERRS:marabwq:1,2014-12-12T16:45:00Z,27.9798,-97.0287,5.0,1111122 
NERRS,ioos:station:NOAA.NERRS:marabwq:1,2014-12-12T18:45:00Z,27.9798,-97.0287,3.0,1111122 
NERRS,ioos:station:NOAA.NERRS:marabwq:1,2014-12-12T19:45:00Z,27.9798,-97.0287,4.0,1111122 
NERRS,ioos:station:NOAA.NERRS:marabwq:1,2014-12-12T20:45:00Z,27.9798,-97.0287,4.0,1111122 
NERRS,ioos:station:NOAA.NERRS:marabwq:1,2014-12-12T21:45:00Z,27.9798,-97.0287,3.0,1111122 
NERRS,ioos:station:NOAA.NERRS:marabwq:1,2014-12-12T22:45:00Z,27.9798,-97.0287,3.0,1111122 
NERRS,ioos:station:NOAA.NERRS:marabwq:1,2014-12-12T23:45:00Z,27.9798,-97.0287,4.0,1111122 
NERRS,ioos:station:NOAA.NERRS:marabwq:1,2014-12-13T00:45:00Z,27.9798,-97.0287,5.0,1111122 
NERRS,ioos:station:NOAA.NERRS:marabwq:1,2014-12-13T01:45:00Z,27.9798,-97.0287,3.0,1111122 
NERRS,ioos:station:NOAA.NERRS:marabwq:1,2014-12-13T02:45:00Z,27.9798,-97.0287,4.0,1111122 
NERRS,ioos:station:NOAA.NERRS:marabwq:1,2014-12-13T03:45:00Z,27.9798,-97.0287,4.0,1111122 
NERRS,ioos:station:NOAA.NERRS:marabwq:1,2014-12-13T04:45:00Z,27.9798,-97.0287,4.0,1111122 
NERRS,ioos:station:NOAA.NERRS:marabwq:1,2014-12-13T06:45:00Z,27.9798,-97.0287,3.0,1111122 
NERRS,ioos:station:NOAA.NERRS:marabwq:1,2014-12-13T07:45:00Z,27.9798,-97.0287,2.0,1111122 
NERRS,ioos:station:NOAA.NERRS:marabwq:1,2014-12-13T08:45:00Z,27.9798,-97.0287,2.0,1111122 
NERRS,ioos:station:NOAA.NERRS:marabwq:1,2014-12-13T09:45:00Z,27.9798,-97.0287,3.0,1111122 
NERRS,ioos:station:NOAA.NERRS:marabwq:1,2014-12-13T10:45:00Z,27.9798,-97.0287,2.0,1111122 